Regional Weather Roundup
Issued by NWS

Home | Current Version | Previous Version | Text Only | Print | Product List | Glossary On
Versions: 1 2 3 4 5 6 7 8 9 10 11 12 13 14 15 16 17 18 19 20 21 22 23 24 25 26 27 28 29 30 31 32 33 34 35 36 37 38 39 40 41 42 43 44 45 46 47 48 49 50
000
ASUS43 KMKX 310259
RWRWI

WISCONSIN REGIONAL WEATHER ROUNDUP
NATIONAL WEATHER SERVICE MILWAUKEE/SULLIVAN WI
900 PM CST FRI JAN 30 2015

NOTE: "FAIR" INDICATES FEW OR NO CLOUDS BELOW 12,000 FEET WITH NO
SIGNIFICANT WEATHER AND/OR OBSTRUCTIONS TO VISIBILITY.

WIZ001-002-006>008-014>016-023>028-310400-
NORTHWEST WISCONSIN

CITY           SKY/WX    TMP DP  RH WIND       PRES   REMARKS
SUPERIOR ARPT  CLOUDY    17   7  65 CALM      30.22F
ASHLAND        CLOUDY    17   5  59 S8        30.23S WCI   7
HAYWARD        CLOUDY    16   6  65 S8        30.22R WCI   5
SIREN          MOCLDY    19  11  72 S3        30.22F
CUMBERLAND     CLOUDY    14   7  73 SE3       30.22R
RICE LAKE      CLOUDY    16   8  70 SE6       30.25R WCI   7
CHETEK         CLOUDY    15   7  68 SE7       30.24S WCI   6
LADYSMITH      CLOUDY    16   7  68 S5        30.25F WCI   9
EAU CLAIRE     NOT AVBL
MENOMONIE      CLOUDY    19  10  69 E5        30.24F WCI  12
NEW RICHMOND   CLOUDY    19  13  76 S5        30.23F WCI  12
OSCEOLA        CLOUDY    21  15  78 SE6       30.25F WCI  14
$$

WIZ003>005-009-010-017-018-310400-
NORTH CENTRAL WISCONSIN

CITY           SKY/WX    TMP DP  RH WIND       PRES   REMARKS
MANITOWISH WTR CLOUDY    15   4  61 S9        30.18F WCI   4
ARBOR VITAE    CLOUDY    17   7  65 SW7       30.20S WCI   7
WOODRUFF       CLOUDY    17   7  65 SW7       30.20S WCI   7
RHINELANDER    CLOUDY    13   4  67 SW8       30.20F WCI   2
EAGLE RIVER    CLOUDY    15   4  61 CALM      30.20S
LAND O LAKES   CLOUDY    16   5  62 S5        30.19F WCI   9
PHILLIPS       CLOUDY    14   5  68 S7        30.21F WCI   3
TOMAHAWK       CLOUDY    12   4  73 CALM      30.23F
MEDFORD        PTCLDY    11   4  72 S3        30.23F
MERRILL        MOCLDY    12   5  75 CALM      30.24F
$$

WIZ029-030-035-036-043>047-310400-
CENTRAL WISCONSIN

CITY           SKY/WX    TMP DP  RH WIND       PRES   REMARKS
WAUSAU         PTCLDY    13   4  67 SW3       30.25R
MOSINEE        NOT AVBL
MARSHFIELD     PTCLDY    15   4  61 CALM      30.25F
STEVENS POINT  CLEAR     13   5  68 S7        30.26F WCI   3
WAUPACA        CLEAR     18   8  66 CALM      30.31F
WAUTOMA        NOT AVBL
WISC RAPIDS    CLEAR     14   3  61 S9        30.26F WCI   2
CAMP DOUGLAS   NOT AVBL
$$

WIZ011>013-019>022-031-037>040-048>050-310400-
NORTHEAST WISCONSIN

CITY           SKY/WX    TMP DP  RH WIND       PRES   REMARKS
ANTIGO         MOCLDY    12   5  71 SW3       30.24S
SHAWANO        MOCLDY    19   7  59 CALM      30.30F
OCONTO         MOCLDY    18   8  66 CALM      30.32F
STURGEON BAY   CLOUDY    18   7  62 S7        30.32F WCI   8
GREEN BAY      CLOUDY    17  11  77 CALM      30.31F
MANITOWOC      NOT AVBL
APPLETON       MOCLDY    16   7  67 SW7       30.30F WCI   6
CLINTONVILLE   CLOUDY    18   9  68 S5        30.29F WCI  11
OSHKOSH        CLEAR     15   8  73 S6        30.31F WCI   6
$$

WIZ032>034-041-042-053>061-310400-
SOUTHWEST WISCONSIN

CITY           SKY/WX    TMP DP  RH WIND       PRES   REMARKS
LA CROSSE      MOCLDY    23  10  57 S9        30.28F WCI  13
SPARTA         MOCLDY    11   7  85 CALM      30.30F
VIROQUA        CLOUDY    21  11  65 S7        30.27F WCI  13
BOSCOBEL       CLOUDY    19  12  74 CALM      30.34F
PRAIRIE DU CHI CLEAR     21  10  60 CALM      30.33F
PLATTEVILLE    MOCLDY    20  15  79 S6        30.33F WCI  12
$$

WIZ056-057-062-063-064-067-068-310400-
SOUTH CENTRAL WISCONSIN

CITY           SKY/WX    TMP DP  RH WIND       PRES   REMARKS
REEDSBURG      CLEAR     19   8  64 CALM      30.32F
BARABOO/DELLS  CLEAR     15   7  70 S6        30.31F WCI   7
LONE ROCK      NOT AVBL
MINERAL POINT  PTCLDY    21  12  68 S5        30.32S WCI  15
MADISON        PTCLDY    17   8  67 S3        30.33F
MIDDLETON      CLEAR     19  10  68 CALM      30.35F
WATERTOWN      CLEAR     17  10  73 S3        30.34F
MONROE         CLEAR     19  14  79 S7        30.33F WCI  10
JANESVILLE     CLEAR     19  12  73 S7        30.36F WCI  10
$$

WIZ051-052-058>065-066-070>072-310400-
SOUTHEAST WISCONSIN

CITY           SKY/WX    TMP DP  RH WIND       PRES   REMARKS
MILWAUKEE      PTCLDY    21   9  59 S7        30.36F WCI  12
WAUKESHA       MOCLDY    19   9  63 CALM      30.35F
MILWAUKEE/TIMM PTCLDY    21   9  58 SW8       30.36F WCI  12
RACINE         PTCLDY    20  10  65 SW6       30.38F WCI  12
BURLINGTON     PTCLDY    13   9  84 CALM      30.37F
KENOSHA        MOCLDY    22  11  62 SW6       30.37F WCI  14
FOND DU LAC    CLEAR     14   8  77 S6        30.32F WCI   5
SHEBOYGAN      PTCLDY    18  10  71 SW7       30.33F WCI   9
WEST BEND      CLEAR     19   9  63 SW3       30.33F
JUNEAU         CLEAR     18  10  71 S9        30.34F WCI   7
$$

LSZ147-162-310400-
LAKE SUPERIOR

STATION/POSITION TIME  TEMP    WIND        PRES    WAVE
                       AIR SEA DIR/SP/G            HT/PER
                 (UTC) (F)     (DEG/KT/KT) (MB)    (FT/S)
DEVILS ISLAND    0200   19     220/ 10/ 14 1024.9F
PORT WING        0200   18     200/  7/  9 1023.7
SAXON HARBOR     0200   20     200/  7/  9 1023.4F
$$

LMZ867-665-643>646-310400-
LAKE MICHIGAN

STATION/POSITION TIME  TEMP    WIND        PRES    WAVE
                       AIR SEA DIR/SP/G            HT/PER
                 (UTC) (F)     (DEG/KT/KT) (MB)    (FT/S)
NORTHPORT PIER   0215   16     190/  2/  5 1026.8F
SISTER BAY       0213   16     200/  8/ 10   N/A
KEWAUNEE LAKESHO 0200   20     210/  8/ 11 1026.6F
SHEBOYGAN LAKESH 0200   23     210/  7/  9 1029.6F
PORT WASHINGTON  0200   23     220/  5/  7 1028.8F
MILWAUKEE LAKESH 0200   25     230/  8/ 11   N/A
KENOSHA   LAKESH 0200   24     230/  3/  7 1029.5F
$$

TC  - TEMPERATURE IN CELSIUS
VSB - VISIBILITY IN STATUTE MILES
WCI - WIND CHILL INDEX
HX  - HEAT INDEX



USA.gov is the U.S. government's official web portal to all federal, state and local government web resources and services.